sat.trackr.live / text

‹ back to catalog

STARLINK-37029

NORAD 68271 · 2026-055K

PAYLOAD ACTIVE UNKNOWN

§ Identity

Operator
Country
US
Launch date
2026-03-19
Launch site
AFETR
Launch vehicle
Mass (kg)
RCS (m²)

Purposes: comms

External: N2YO · Heavens-Above · Gunter

§ Orbital elements

Epoch: 2026-05-24T21:18:49.935744Z

Period
93.85 min
Inclination
53.1589°
Eccentricity
0.0001074
Mean motion
15.34396910 rev/d
Perigee alt
462.0 km
Apogee alt
463.4 km
Semi-major
6,840.8 km
B*
4.2731e-4
RAAN
324.1716°
Arg perigee
74.4264°
Mean anomaly
285.6857°
Rev number
1,161

§ Raw data

STARLINK-370291 68271U 26055K   26144.88807796  .00014087  00000+0  42731-3 0  99912 68271  53.1589 324.1716 0001074  74.4264 285.6857 15.34396910 11611

JSON: /api/v1/satellites/68271 · /tle

For live sub-satellite position, see the globe view (requires WebGL).

§ Visibility from observer

Set your observer location to see the next 7 days of passes ≥ 10°. The values pass through the URL so the page stays shareable.

No JS? Fill the form by hand. The geolocation button needs JavaScript.